Weather History for Pittsburg, KS

Change the Weather History Date:

Friday, June 14, 2013

  Actual Average (KJLN) Record (KJLN)
Temperature  
Mean Temperature 80 °F 75 °F  
Max Temperature 91 °F 86 °F 103 °F (1953)
Min Temperature 69 °F 65 °F 56 °F (1989)
Degree Days  
Heating Degree Days 0 0  
Month to date heating degree days 2  
Since 1 June heating degree days 2  
Since 1 July heating degree days 4071  
Cooling Degree Days 15 10  
Month to date cooling degree days 120  
Year to date cooling degree days 300  
Since 1 June cooling degree days 120  
Growing Degree Days 30 (Base 50)    
Moisture  
Dew Point 72 °F    
Average Humidity 77    
Maximum Humidity 100    
Minimum Humidity 55    
Precipitation  
Precipitation 0.00 in 0.20 in 2.01 in (1983)
Month to date precipitation 2.83  
Year to date precipitation 20.78  
Sea Level Pressure  
Sea Level Pressure 29.97 in    
Wind  
Wind Speed 5 mph (SSE)    
Max Wind Speed 12 mph    
Max Gust Speed 16 mph    
Visibility 10 miles    
Events      
T = Trace of Precipitation, MM = Missing Value Source: NWS Daily Summary

Daily Weather History Graph

Daily Weather History Graph

Search for Another Location

Airport:

Trip Planner

Search our weather history database for the weather conditions in past years. The results will help you decide how hot, cold, wet, or windy it might be!

Date:

Astronomy

Jun. 14, 2013 Rise Set
Actual Time 5:57 AM CDT 8:41 PM CDT
Civil Twilight 5:26 AM CDT 9:12 PM CDT
Nautical Twilight 4:47 AM CDT 9:51 PM CDT
Astronomical Twilight 4:03 AM CDT 10:35 PM CDT
Moon 11:27 AM CDT (6/14) No Moon Set
Length of Visible Light 15h 46m
Length of Day
14h 43m
Waxing Crescent, 30% of the Moon is Illuminated
Jun 14
Waxing Crescent
Jun 16
First Quarter
Jun 23
Full
Jun 29
Last Quarter
Jul 8
New

Hourly Weather History & Observations

Time (CDT) Temp. Heat Index Dew Point Humidity Pressure Visibility Wind Dir Wind Speed Gust Speed Precip Events Conditions
12:15 AM 70.9 °F - 71.1 °F 100% 29.99 in 10.0 mi Calm Calm - N/A   Clear
12:35 AM 70.9 °F - 71.1 °F 100% 29.99 in 10.0 mi Calm Calm - N/A   Clear
12:55 AM 70.9 °F - 71.1 °F 100% 29.99 in 10.0 mi Calm Calm - N/A   Clear
1:15 AM 70.9 °F - - N/A% 30.00 in 10.0 mi Calm Calm - N/A   Clear
1:35 AM 69.3 °F - - N/A% 30.00 in 10.0 mi East 3.5 mph - N/A   Clear
1:55 AM 70.7 °F - - N/A% 30.00 in 10.0 mi East 4.6 mph - N/A   Clear
2:15 AM 70.9 °F - 71.1 °F 100% 30.00 in 10.0 mi Calm Calm - N/A   Clear
2:35 AM 70.9 °F - 71.1 °F 100% 30.00 in 7.0 mi Calm Calm - N/A   Clear
2:55 AM 70.9 °F - 71.1 °F 100% 29.99 in 10.0 mi ESE 3.5 mph - N/A   Clear
3:15 AM 70.9 °F - 71.1 °F 100% 29.99 in 10.0 mi ESE 3.5 mph - N/A   Clear
3:35 AM 70.9 °F - 71.1 °F 100% 29.99 in 10.0 mi ESE 4.6 mph - N/A   Clear
3:55 AM 70.9 °F - 71.1 °F 100% 29.99 in 10.0 mi ESE 4.6 mph - N/A   Clear
4:15 AM 70.9 °F - 71.1 °F 100% 29.99 in 10.0 mi ESE 5.8 mph - N/A   Clear
4:35 AM 70.9 °F - 71.1 °F 100% 30.00 in 10.0 mi East 5.8 mph - N/A   Clear
4:55 AM 70.9 °F - 71.1 °F 100% 29.99 in 10.0 mi ESE 5.8 mph - N/A   Clear
5:15 AM 70.9 °F - 71.1 °F 100% 29.99 in 10.0 mi ESE 6.9 mph - N/A   Clear
5:35 AM 70.9 °F - 71.1 °F 100% 29.99 in 10.0 mi SE 5.8 mph - N/A   Clear
5:55 AM 70.9 °F - 71.1 °F 100% 29.99 in 10.0 mi SE 6.9 mph - N/A   Clear
6:15 AM 70.9 °F - 71.1 °F 100% 30.00 in 10.0 mi SE 4.6 mph - N/A   Clear
6:35 AM 70.9 °F - 71.1 °F 100% 30.00 in 10.0 mi SE 6.9 mph - N/A   Clear
6:55 AM 70.9 °F - 71.1 °F 100% 30.01 in 10.0 mi SE 4.6 mph - N/A   Clear
7:15 AM 70.9 °F - 71.1 °F 100% 30.01 in 10.0 mi SE 6.9 mph - N/A   Clear
7:35 AM 70.9 °F - 70.9 °F 100% 30.01 in 10.0 mi SSE 8.1 mph - N/A   Clear
7:55 AM 72.3 °F - 71.2 °F 96% 30.02 in 10.0 mi SSE 9.2 mph - N/A   Clear
8:15 AM 73.8 °F - 72.0 °F 94% 30.02 in 10.0 mi SSE 8.1 mph - N/A   Clear
8:35 AM 76.1 °F - 72.3 °F 88% 30.02 in 10.0 mi SE 6.9 mph - N/A   Clear
8:55 AM 76.1 °F - 69.8 °F 81% 30.03 in 10.0 mi SSE 9.2 mph - N/A   Mostly Cloudy
9:15 AM 76.1 °F - 69.4 °F 80% 30.03 in 10.0 mi SSE 8.1 mph - N/A   Mostly Cloudy
9:35 AM 77.5 °F - 70.0 °F 77% 30.03 in 10.0 mi SSE 8.1 mph - N/A   Scattered Clouds
9:55 AM 78.4 °F - 70.0 °F 75% 30.02 in 10.0 mi South 9.2 mph - N/A   Clear
10:15 AM 79.9 °F - 70.2 °F 72% 30.01 in 10.0 mi SSE 10.4 mph - N/A   Clear
10:35 AM 81.0 °F 84.6 °F 70.5 °F 70% 30.01 in 10.0 mi South 6.9 mph - N/A   Clear
10:55 AM 81.5 °F 85.3 °F 70.5 °F 69% 30.00 in 10.0 mi South 8.1 mph - N/A   Clear
11:15 AM 82.9 °F 88.0 °F 71.8 °F 69% 29.99 in 10.0 mi SSW 9.2 mph - N/A   Clear
11:35 AM 83.8 °F 89.5 °F 72.3 °F 68% 29.99 in 10.0 mi South 8.1 mph - N/A   Clear
11:55 AM 84.7 °F 90.7 °F 72.3 °F 66% 29.99 in 10.0 mi South 6.9 mph - N/A   Clear
12:15 PM 85.5 °F 91.8 °F 72.5 °F 65% 29.99 in 10.0 mi SSW 6.9 mph - N/A   Clear
12:35 PM 87.1 °F 94.5 °F 73.2 °F 63% 29.99 in 10.0 mi SSW 9.2 mph - N/A   Clear
12:55 PM 88.7 °F 98.2 °F 74.7 °F 63% 29.99 in 10.0 mi SSW 11.5 mph - N/A   Clear
1:15 PM 90.5 °F 102.1 °F 75.9 °F 62% 29.98 in 10.0 mi SSW 6.9 mph 10.4 mph N/A   Clear
1:35 PM 91.0 °F 102.9 °F 76.1 °F 61% 29.98 in 10.0 mi South 9.2 mph - N/A   Clear
1:55 PM 90.5 °F 102.1 °F 75.9 °F 62% 29.98 in 10.0 mi South 9.2 mph - N/A   Scattered Clouds
2:15 PM 91.0 °F 102.9 °F 76.1 °F 61% 29.97 in 10.0 mi South 8.1 mph - N/A   Scattered Clouds
2:35 PM 90.5 °F 102.1 °F 75.7 °F 62% 29.96 in 10.0 mi SSW 8.1 mph - N/A   Scattered Clouds
2:55 PM 91.0 °F 101.6 °F 74.7 °F 59% 29.96 in 10.0 mi South 11.5 mph 16.1 mph N/A   Scattered Clouds
3:15 PM 91.0 °F 100.4 °F 73.9 °F 57% 29.95 in 10.0 mi South 9.2 mph - N/A   Clear
3:35 PM 91.0 °F 99.3 °F 72.9 °F 55% 29.94 in 10.0 mi SSE 11.5 mph - N/A   Scattered Clouds
3:55 PM 91.0 °F 99.3 °F 72.9 °F 55% 29.94 in 10.0 mi South 8.1 mph - N/A   Scattered Clouds
4:15 PM 91.0 °F 99.8 °F 73.4 °F 56% 29.93 in 10.0 mi South 9.2 mph - N/A   Scattered Clouds
4:35 PM 91.0 °F 99.8 °F 73.4 °F 56% 29.92 in 10.0 mi SSW 10.4 mph - N/A   Scattered Clouds
4:55 PM 91.0 °F 99.8 °F 73.4 °F 56% 29.92 in 10.0 mi SSW 8.1 mph - N/A   Scattered Clouds
5:15 PM 91.0 °F 100.4 °F 73.9 °F 57% 29.92 in 10.0 mi South 9.2 mph - N/A   Scattered Clouds
5:35 PM 91.0 °F 100.4 °F 73.8 °F 57% 29.92 in 10.0 mi South 8.1 mph - N/A   Scattered Clouds
5:55 PM 91.0 °F 100.4 °F 73.8 °F 57% 29.91 in 10.0 mi South 9.2 mph - N/A   Scattered Clouds
6:15 PM 91.0 °F 101.0 °F 74.3 °F 58% 29.90 in 10.0 mi South 10.4 mph - N/A   Clear
6:35 PM 91.0 °F 99.8 °F 73.6 °F 56% 29.90 in 10.0 mi South 10.4 mph - N/A   Clear
6:55 PM 91.0 °F 100.4 °F 73.9 °F 57% 29.90 in 10.0 mi South 8.1 mph - N/A   Clear
7:15 PM 91.0 °F 101.6 °F 74.7 °F 59% 29.91 in 10.0 mi South 6.9 mph - N/A   Clear
7:35 PM 89.6 °F 98.2 °F 73.4 °F 59% 29.91 in 10.0 mi South 8.1 mph - N/A   Clear
7:55 PM 87.4 °F 94.0 °F 72.1 °F 60% 29.91 in 10.0 mi South 6.9 mph - N/A   Clear
8:15 PM 84.4 °F 89.7 °F 71.4 °F 65% 29.92 in 10.0 mi South 6.9 mph - N/A   Clear
8:35 PM 83.7 °F 88.9 °F 71.8 °F 67% 29.92 in 10.0 mi South 6.9 mph - N/A   Clear
8:55 PM 83.5 °F 89.1 °F 72.1 °F 69% 29.92 in 10.0 mi South 8.1 mph - N/A   Clear
9:15 PM 83.5 °F 89.1 °F 72.3 °F 69% 29.93 in 10.0 mi South 6.9 mph - N/A   Scattered Clouds
9:35 PM 83.1 °F 88.6 °F 72.3 °F 70% 29.94 in 10.0 mi South 5.8 mph - N/A   Scattered Clouds
9:55 PM 82.8 °F 88.4 °F 72.9 °F 72% 29.95 in 10.0 mi South 5.8 mph - N/A   Scattered Clouds
10:15 PM 82.8 °F 88.2 °F 72.7 °F 71% 29.95 in 10.0 mi South 5.8 mph - N/A   Scattered Clouds
10:35 PM 81.7 °F 86.9 °F 73.2 °F 75% 29.96 in 10.0 mi South 5.8 mph - N/A   Clear
10:55 PM 81.0 °F 86.0 °F 73.6 °F 78% 29.96 in 10.0 mi South 6.9 mph - N/A   Clear
11:15 PM 81.0 °F 86.5 °F 74.7 °F 81% 29.97 in 10.0 mi SSW 4.6 mph - N/A   Clear
11:35 PM 81.0 °F 87.5 °F 76.3 °F 86% 29.97 in 10.0 mi South 3.5 mph - N/A   Clear
11:55 PM 79.5 °F - 76.6 °F 91% 29.97 in 10.0 mi South 5.8 mph - N/A   Clear